Location: Altavilla Irpina
(41.0000°N, 14.7833°E)
Time: 20:39:22
(UTC+00:00)

Ariane Rocket - Pass Details

Date: 19 May 2025
Orbit: 755 x 764 km, 98.5° (Epoch: 20 June)

Event Time Altitude Azimuth Distance (km) Brightness Sun altitude
Exits shadow 19:36:59 17° 108° (ESE) 1,870 4.5 -13.4°
Maximum altitude 19:39:39 26° 66° (ENE) 1,481 4.3 -13.7°
Drops below altitude 10° 19:43:47 10° 11° (NNE) 2,306 5.9 -14.3°
Sets 19:46:25 0° 359° (N) 3,238 7.0 -14.7°
